#timestamp,LO_Frequency,Hit,StdDev 
1570532415.6,286047001.1,N
1570532435.4,286046998.6,N
1570532455.3,286046997.1,N
1570532475.1,286046994.9,N
1570532495.9,286046995.4,N
1570532515.7,286046997.9,N
1570532535.5,286046995.6,N
1570532555.4,286046996.0,N
1570532575.2,286046995.8,N
1570532595.0,286046996.1,N
1570532595.9,286046996.1,N
1570532615.8,286046993.9,Y
1570532635.6,286046999.5,P
1570532655.5,286046997.2,N
1570532675.3,286046995.3,P
1570532695.1,286046996.4,N
1570532715.9,286046997.3,N
1570532735.7,286046997.8,N
1570532755.6,286046995.4,Y
1570532775.4,286046998.9,P
1570532795.2,286046996.9,P
1570532815.1,286046997.3,P
1570532816.0,286046997.3,Y
1570532835.8,286047000.4,P
1570532855.7,286047002.7,N
1570532875.5,286046999.7,N
1570532895.3,286047001.3,N
1570532915.2,286047003.0,N
1570532935.0,286047003.1,N
1570532935.9,286047003.1,N
1570532955.7,286047003.5,N
1570532975.6,286047004.7,N
1570532995.4,286047003.2,N
1570533015.3,286047001.4,N
1570533035.1,286047004.0,N
1570533036.0,286047004.0,N
1570533055.8,286047001.5,N
1570533075.7,286047003.5,N
1570533095.5,286047003.9,N
1570533115.4,286047003.9,N
1570533135.2,286047004.3,N
1570533155.0,286047001.3,N
1570533155.9,286047001.3,N
1570533175.8,286046999.9,N
1570533195.6,286047000.3,N
1570533215.4,286046998.1,N
1570533235.3,286047000.2,N
1570533255.1,286046999.7,N
1570533275.9,286046999.8,N
1570533295.7,286047002.0,N
1570533315.5,286047001.9,N
1570533335.4,286047002.7,N
1570533355.2,286047000.0,N
1570533375.0,286047000.1,N
1570533375.9,286047000.1,N
1570533395.8,286047000.3,N
1570533415.6,286047001.1,N
1570533435.5,286047001.0,N
1570533455.3,286047001.8,N
1570533475.1,286047004.1,N
1570533495.9,286047004.2,N
1570533515.7,286047004.1,N
1570533535.5,286047001.5,N
1570533555.4,286047000.2,N
1570533575.2,286047004.3,N
1570533595.0,286047004.0,N
1570533596.0,286047004.0,N
1570533615.8,286047005.3,N
1570533635.6,286047005.4,N
1570533655.5,286047004.7,N
1570533675.3,286047005.8,N
1570533695.1,286047003.5,N
1570533715.9,286047003.7,N
1570533735.7,286047003.5,N
1570533755.5,286047005.3,N
1570533775.4,286047006.8,Y
1570533795.2,286047007.5,P
1570533815.1,286047006.9,N
1570533816.0,286047006.9,P
1570533835.8,286047007.1,Y
1570533855.6,286047002.5,P
1570533875.5,286047000.2,N
1570533895.3,286046999.7,N
1570533915.2,286047001.4,N
1570533935.9,286047003.7,N
1570533955.7,286047003.3,N
1570533975.6,286047003.9,N
1570533995.4,286047003.7,N
1570534015.2,286047003.7,N
1570534035.1,286047003.4,N
1570534036.0,286047003.4,N
1570534085.8,286047003.1,E
1570534095.8,286047004.3,N
1570534115.6,286047002.2,P
1570534135.4,286047000.9,N
1570534155.3,286047001.2,N
1570534175.1,286047002.7,N
1570534195.8,286046999.8,N
1570534215.7,286047002.1,N
1570534235.5,286047004.4,Y
1570534255.4,286047000.4,P
1570534275.2,286047000.7,N
1570534295.0,286047002.0,P
1570534295.9,286047002.0,N
1570534315.8,286047002.3,Y
1570534335.6,286047001.3,P
1570534355.5,286047000.3,P
1570534375.3,286046998.3,P
1570534395.1,286047000.5,N
1570534415.9,286046999.9,N
1570534435.7,286047001.8,N
1570534455.5,286047005.9,Y
1570534475.4,286047003.7,P
1570534495.2,286047005.6,P
1570534515.1,286047007.1,P
1570534516.0,286047007.1,N
1570534535.8,286047003.2,N
1570534555.6,286047001.3,N
1570534575.5,286047004.3,N
1570534595.3,286047005.4,N
1570534615.1,286047005.7,N
1570534635.9,286047006.8,Y
1570534655.7,286047001.3,P
1570534675.6,286047001.9,N
1570534695.4,286047002.1,N
1570534715.2,286047003.9,Y
1570534735.1,286047000.1,P
1570534736.0,286047000.1,N
1570534755.8,286047002.3,N
1570534775.7,286047002.2,N
1570534795.5,286047000.1,N
1570534815.3,286047002.8,N
1570534835.2,286047001.3,N
1570534855.9,286047001.8,N
1570534875.7,286047000.2,N
1570534895.6,286047001.4,N
1570534915.4,286047003.9,Y
1570534935.3,286047001.5,P
1570534955.1,286047001.4,P
1570534956.0,286047001.4,P
1570534975.8,286047003.9,Y
1570534995.7,286047001.8,P
1570535015.5,286046999.8,N
1570535035.3,286047003.6,P
1570535055.2,286047001.8,N
1570535075.0,286047001.7,N
1570535075.9,286047001.7,N
1570535095.8,286047003.9,Y
1570535115.6,286047003.8,P
1570535135.4,286047001.9,N
1570535155.3,286047002.3,N
1570535175.1,286047001.4,N
1570535195.9,286047003.7,Y
1570535215.7,286047004.4,P
1570535235.5,286047003.5,P
1570535255.4,286047003.0,P
1570535275.2,286047001.7,N
1570535295.0,286047002.0,N
1570535295.9,286047002.0,N
1570535315.8,286047002.1,N
1570535335.6,286047003.8,Y
1570535355.5,286047000.3,P
1570535375.3,286047000.5,N
1570535395.1,286047004.0,P
1570535415.9,286047003.3,N
1570535435.7,286047003.8,N
1570535455.5,286047004.4,N
1570535475.4,286047001.4,N
1570535495.2,286047003.8,N
1570535515.0,286047002.9,N
1570535516.0,286047002.9,N
1570535535.8,286047003.8,N
1570535555.6,286047002.9,N
1570535575.5,286047008.7,Y
1570535595.3,286047005.9,P
1570535615.1,286047004.3,N
1570535635.9,286047003.0,N
1570535655.7,286047005.6,Y
1570535675.6,286047002.8,P
1570535695.4,286047002.6,P
1570535715.2,286047000.3,N
1570535735.1,286047004.4,Y
1570535736.0,286047004.4,P
1570535755.8,286047000.5,N
1570535775.6,286047000.8,N
1570535795.5,286047000.6,N
1570535815.3,286047000.3,N
1570535835.2,286046999.1,N
1570535855.9,286046999.6,N
1570535875.7,286046999.0,N
1570535895.6,286046999.2,N
1570535915.4,286047000.9,N
1570535935.2,286046999.9,N
1570535955.1,286047000.4,N
1570535956.0,286047000.4,N
1570535975.8,286047002.3,N
1570535995.7,286047004.0,N
